Location: Unspecified
(0.0000°N, 0.0000°E)
Time: 01:36:23
(UTC+00:00)

Vanguard 2 Rocket - Visible Passes

Search period start: 20 February 2017 00:00
Search period end: 02 March 2017 00:00
Orbit: 553 x 3328 km, 32.9° (Epoch: 18 February)

Date Brightness Start Highest point End Pass type
(mag) Time Alt. Az. Time Alt. Az. Time Alt. Az.
20 Feb 10.5 03:05:05 10° S 03:08:00 11° SSE 03:11:12 10° SE visible
20 Feb 10.5 05:14:22 10° SSW 05:27:48 34° SSE 05:44:54 10° E visible
20 Feb 6.7 19:14:30 10° NNW 19:18:33 32° NNE 19:19:27 29° ENE visible
21 Feb 10.4 04:15:32 10° SSW 04:25:54 24° SSE 04:39:28 10° ESE visible
21 Feb 8.4 20:28:33 10° WNW 20:29:58 19° W 20:29:58 19° W visible
22 Feb 10.4 03:17:42 10° S 03:24:11 15° SSE 03:32:15 10° ESE visible
22 Feb 10.4 05:28:20 10° SSW 05:42:44 46° SE 06:01:37 10° ENE visible
22 Feb 5.8 19:28:49 10° NW 19:33:23 89° SW 19:34:36 44° SE visible
23 Feb 10.3 04:29:19 10° SSW 04:41:06 33° SE 04:57:19 10° E visible
23 Feb 6.7 18:29:12 10° NW 18:34:21 42° NNE 18:38:11 10° ESE visible
23 Feb 9.1 20:44:50 10° WSW 20:45:08 11° WSW 20:45:08 11° WSW visible
24 Feb 10.3 03:31:01 10° SSW 03:39:45 22° SE 03:51:35 10° ESE visible
24 Feb 10.0 05:42:28 10° SW 05:57:20 62° SE 06:17:25 10° ENE visible
24 Feb 7.5 19:44:01 10° W 19:48:04 32° SW 19:49:46 23° S visible
25 Feb 10.3 02:34:14 10° S 02:38:35 13° SSE 02:43:48 10° SE visible
25 Feb 10.1 04:43:14 10° SSW 04:55:49 45° SE 05:14:02 10° ENE visible
25 Feb 6.3 18:43:41 10° WNW 18:49:11 76° SW 18:53:12 10° SE visible
26 Feb 10.1 03:44:37 10° SSW 03:54:44 31° SE 04:09:29 10° E visible
26 Feb 8.6 20:00:39 10° WSW 20:02:46 13° SW 20:04:44 10° S visible
27 Feb 10.0 02:48:12 13° S 02:53:56 19° SE 03:03:37 10° ESE visible
27 Feb 9.6 04:57:22 10° SW 05:10:17 63° SE 05:29:49 10° ENE visible
27 Feb 8.0 18:59:01 10° W 19:03:47 30° SW 19:07:25 10° SSE visible
28 Feb 9.7 03:58:48 11° SSW 04:09:17 45° SE 04:26:11 10° ENE visible
01 Mar 9.7 03:03:34 21° S 03:08:44 29° SE 03:21:35 10° E visible
01 Mar 9.3 05:11:48 10° SW 05:24:46 84° SE 05:44:51 10° NE visible
01 Mar 8.8 19:15:48 10° WSW 19:18:17 13° SW 19:20:29 10° S visible
